Regional Weather Roundup
Issued by NWS

Home | Current Version | Previous Version | Graphics & Text | Print | Product List | Glossary On
Versions: 1 2 3 4 5 6 7 8 9 10 11 12 13 14 15 16 17 18 19 20 21 22 23 24 25 26 27 28 29 30 31 32 33 34 35 36 37 38 39 40 41 42 43 44 45 46 47 48 49 50
777
ASUS43 KMPX 280510
RWRMN
WEATHER ROUNDUP FOR MINNESOTA
NATIONAL WEATHER SERVICE TWIN CITIES/CHANHASSEN MN
1200 AM CDT WED JUN 28 2017


NOTE: "FAIR" INDICATES FEW OR NO CLOUDS BELOW 12,000 FEET WITH NO
SIGNIFICANT WEATHER AND/OR OBSTRUCTIONS TO VISIBILITY. N/A MEANS
CURRENT SKY AND/OR WEATHER CONDITIONS ARE NOT AVAILABLE.

MNZ060>063-068>070-280600-
   Twin Cities Metro

CITY           SKY/WX    TMP DP  RH WIND       PRES   REMARKS
TWIN CITIES    CLOUDY    70  45  40 S9        29.82F
ST PAUL        MOCLDY    67  48  50 SE10      29.83F
CRYSTAL        MOCLDY    70  43  37 SE13      29.78F
BLAINE         MOCLDY    70  46  43 S14G21    29.79F
LAKEVILLE      CLOUDY    66  46  48 SE5       29.82F
EDEN PRAIRIE   CLOUDY    69  46  43 SE9       29.80F
SOUTH ST PAUL  MOCLDY    68  45  44 SE6       29.83F
LAKE ELMO      FAIR      66  46  48 S10       29.85F
$$
MNZ001>005-007-008-013>017-022>024-027-028-280600-
   Northwest Minnesota

CITY           SKY/WX    TMP DP  RH WIND       PRES   REMARKS
BEMIDJI        LGT RAIN  63  49  58 S12       29.74F
HALLOCK        CLOUDY    64  48  55 SE10      29.60F
ROSEAU         CLOUDY    66  50  55 S13       29.67F
WARROAD        CLOUDY    64  52  63 E6        29.69S
THIEF RVR FALL CLOUDY    67  48  50 SE15      29.66F
CROOKSTON      MOCLDY    66  48  52 SE13      29.62F
FOSSTON        CLOUDY    64  46  52 SE9       29.68F
DETROIT LAKES  CLOUDY    64  50  59 SE16G24   29.66F
MOORHEAD       CLOUDY    70  48  46 SE14G21   29.58F
PARK RAPIDS    CLOUDY    62  49  62 SE10      29.73F
MAHNOMEN       CLOUDY    64  49  59 SE13G22   29.64F
$$
MNZ006-009>011-018-025>026-280600-
   North Central Minnesota

CITY           SKY/WX    TMP DP  RH WIND       PRES   REMARKS
BAUDETTE       CLOUDY    61  49  64 SE8       29.72F
FLAG ISLAND    CLOUDY    66  55  68 S15       29.68F
INTL FALLS     PTCLDY    56  46  69 SE5       29.76R
WASKISH        CLOUDY    61  52  72 SE3       29.74F
BIG FORK       PTCLDY    59  46  63 S5        29.77S
LONGVILLE      CLOUDY    55  50  82 CALM      29.78R
GRAND RAPIDS   PTCLDY    61  44  53 SE9       29.80F
CRANE LAKE     CLEAR     48  46  93 CALM      29.80R
ORR            CLEAR     57  43  58 S6        29.76S
COOK           CLEAR     57  46  67 S5        29.79F
WALKER         TSTM      61  49  63 SE5G16    29.77S
$$
MNZ012-019>021-037-280600-
   Northeast Minnesota

CITY           SKY/WX    TMP DP  RH WIND       PRES   REMARKS
DULUTH         CLOUDY    59  46  62 S9        29.83S
ELY            CLEAR     57  45  62 S5        29.81S
HIBBING        CLEAR     47  45  93 CALM      29.80S
EVELETH        PTCLDY    50  44  79 CALM      29.83S
DULUTH HARBOR  CLOUDY    61  50  67 CALM      29.83S
TWO HARBORS    PTCLDY    55  50  82 CALM      29.82S
SILVER BAY     PTCLDY    52  48  87 CALM      29.82S
GRAND MARAIS     N/A     48  45  89 CALM      29.81F
G MARAIS ARPRT MOCLDY    57  43  58 S3        29.86S
$$
MNZ029>031-032-039>041-046>048-054>057-064-280600-
   West Central Minnesota

CITY           SKY/WX    TMP DP  RH WIND       PRES   REMARKS
FERGUS FALLS   CLOUDY    66  52  59 SE8       29.61F
WHEATON        PTCLDY    70  46  43 SE20G25   29.59F
MORRIS         CLOUDY    70  48  46 SE21G26   29.64F
ALEXANDRIA     LGT RAIN  63  54  72 S16G23    29.71F
ELBOW LAKE     FAIR      69  50  50 SE21      29.64F
WADENA         LGT RAIN  63  52  67 SE10      29.72F
GLENWOOD       MOCLDY    70  50  49 S16G24    29.71F
APPLETON       MOCLDY    72  48  43 SE12G17   29.64F
BENSON         CLOUDY    72  48  43 S16       29.69F
ORTONVILLE     CLOUDY    72  52  49 SE15G21   29.61F
MADISON        PTCLDY    73  54  49 SE15      29.63F
WILLMAR        FAIR      70  48  46 SE13      29.72F
$$
MNZ033>034-036-042>043-049>051-058-059-280600-
   Central Minnesota

CITY           SKY/WX    TMP DP  RH WIND       PRES   REMARKS
ST CLOUD       MOCLDY    62  54  74 S6        29.76F
SAUK CENTRE    LGT RAIN  64  49  58 CALM      29.75F
PAYNESVILLE    CLOUDY    67  47  47 S12G17    29.75F
AITKIN         CLOUDY    63  46  55 S8        29.77S
PINE RIVER     TSTM      63  52  67 S3        29.81S
BRAINERD       LGT RAIN  60  51  72 SE8       29.78S
STAPLES        CLOUDY    61  50  67 E5        29.74F
LONG PRAIRIE   CLOUDY    61  52  72 E6        29.75F
LITTLE FALLS   CLOUDY    63  48  59 E5        29.77F
LITCHFIELD     CLOUDY    70  50  49 SE8       29.76F
BUFFALO        CLOUDY    67  46  45 SE8       29.78F
MAPLE LAKE     PTCLDY    68  49  51 S5        29.77F
HUTCHINSON     CLOUDY    68  50  52 SE12G18   29.76F
$$
MNZ037-044-045-052-053-280600-
   East Central Minnesota

CITY           SKY/WX    TMP DP  RH WIND       PRES   REMARKS
PRINCETON      MOCLDY    66  48  52 SE7       29.78F
MORA           CLOUDY    61  45  55 CALM      29.85R
CAMBRIDGE      MIX PCPN  68  50  52 SE10      29.78F
RUSH CITY      CLOUDY    61  46  59 SE3       29.83S
MOOSE LAKE     CLOUDY    59  45  58 S3        29.81R
HINCKLEY       FAIR      61  48  63 SE3       29.83R
CLOQUET        PTCLDY    59  43  55 S3        29.83S
MCGREGOR       CLOUDY    59  46  63 SE8       29.80F
$$
MNZ071>073-080-081-089-090-097-098-280600-
   Southwest Minnesota

CITY           SKY/WX    TMP DP  RH WIND       PRES   REMARKS
MONTEVIDEO     CLOUDY    70  50  49 S13       29.68F
GRANITE FALLS  CLOUDY    73  52  48 E13       29.70F
CANBY          CLOUDY    70  55  58 SE10G17   29.64F
MARSHALL       CLOUDY    70  61  73 S17G24    29.68F
REDWOOD FALLS  CLOUDY    69  49  48 SE10      29.71F
OLIVIA         MOCLDY    70  48  46 SE15G21   29.70F
PIPESTONE      CLOUDY    72  63  73 SE6G16    29.68F
WINDOM         MOCLDY    70  55  60 SE16G23     N/A
WORTHINGTON    TSTM      66  63  88 S15G21    29.70F
JACKSON        CLOUDY    70  55  60 S17G25    29.72F
TRACY          TSTM      72  60  67 SW8       29.73F
SLAYTON        TSTM      68  61  78 SE3       29.74S
$$
MNZ065>067-074>077-082>085-091>093-280600-
   South Central Minnesota

CITY           SKY/WX    TMP DP  RH WIND       PRES   REMARKS
MANKATO        MOCLDY    68  50  52 SE18      29.75F
NEW ULM        CLOUDY    66  48  52 SE12      29.74F
ST JAMES       CLOUDY    68  52  56 SE15G21   29.73F
FAIRMONT       PTCLDY    67  54  63 S14       29.76F
GLENCOE        CLOUDY    69  52  53 SE12G17   29.76F
FARIBAULT      CLOUDY    70  46  43 SE10      29.83F
OWATONNA       CLOUDY    68  48  49 SE15G22   29.82F
WASECA         CLOUDY    66  46  48 SE13G22   29.81F
ALBERT LEA     CLOUDY    66  48  52 S14G20    29.82F
$$
MNZ078>079-086>088-094>096-280600-
   Southeast Minnesota

CITY           SKY/WX    TMP DP  RH WIND       PRES   REMARKS
ROCHESTER      PTCLDY    65  46  50 S16       29.88F
RED WING       CLOUDY    66  43  42 SE7       29.86R
STANTON        MOCLDY    68  46  45 S8        29.83F
DODGE CENTER   CLOUDY    66  45  45 S15       29.85F
WINONA         CLOUDY    63  46  55 SE3       29.89S
AUSTIN         CLOUDY    64  46  52 S12       29.85F
PRESTON        CLOUDY    62  45  53 S12G20    29.90F
$$
ABBREVIATIONS USED IN REMARKS
   TC - TEMPERATURES IN CELSIUS
  WCI - WIND CHILL INDEX
   HX - HEAT INDEX
  VSB - VISIBILITY
$$




USA.gov is the U.S. government's official web portal to all federal, state and local government web resources and services.